MET7781 - Hamburg to Keflavik

Airbus A321-232
665MT - Sharklet Equipped
3 hrs 00 mins
1171 nm
Ferry - M

Departure

Departing from
Hamburg (XFW)
Departure gate
Delivery Centre
Scheduled Departure
GMT 0700
Local 0800
METAR
TAF
  • No charts available

Arrival

Arriving at
Keflavik (KEF)
Arrival gate
Ramp
Scheduled Arrival
GMT 1000
Local 1000
METAR BIKF 230000Z 14014KT 9999 BKN030 OVC090 00/M02 Q1016
TAF TAF BIKF 222300Z 2300/2324 15010KT 9999 SCT030 BKN050 TX06/2313Z TN00/2300Z BECMG 2300/2303 17022KT 5000 RASN BKN015 OVC025 TEMPO 2303/2306 17025G35KT 2000 SNRA BKN008 OVC014 BECMG 2305/2308 15030G40KT 2000 RADZ BKN005 OVC010 BECMG 2312/2315 23027G40KT 99

Route Map

Planning Resources

LBE UP992 VES U613 VALDI ING KEILA2
DCT LBV UP992 ATTUS P992 BAVTA P613 VALDI/M076F380 G3 NASBU DCT
Route:
OFP Layout:
Units:
Detailed Navlog:
ETOPS Planning:
Plan Stepclimbs:
Runway Analysis:
Include NOTAMS:
FIR NOTAMS:
Flight Maps:

Popularity

Hub Current Bids PiReps this month Total PiReps
KMCI 0 0 1
KLAX 0 0 0
KBOS 0 0 1